ASTRA 1P (SES-24)

Last updated on Mon Sep 07 2026 00:03:02 GMT+0000 (Coordinated Universal Time)

1 60086U 24115A 26248.74021441 .00000107 00000+0 00000+0 0 9994 2 60086 0.0646 328.7445 0002302 260.6372 41.1447 1.00270451 8003
UTC large
Height (km)
Speed (km/s)
/
Latitude / Longitude
Inclination (degrees)
Orbital Period (minutes)
Azimuth
Elevation
Range (km)
Doppler Factor

Next 0 passes for location: London (51.5072 / 0.1276)

No passes found over London.
ASTRA 1P (SES-24)